This demonstration page uses our WeatherBlox Daily Observations layout. Learn more.

Left ArrowRight Arrow

Hourly Observations for October 7, 2015

Temp ( °F °C ) Dew Point ( °F °C ) Humidity (%) Winds ( mph kmh ) Pressure ( in mb ) Visibility ( mi km ) Precip ( " mm )
12:53 am 00:53 Clear 61 16.1 58 14.4 90 90 Calm 30.01 1016 10 16 0.00 0.00
1:53 am 01:53 Clear 61 16.1 58 14.4 90 90 Calm 30.01 1016 10 16 0.00 0.00
2:43 am 02:43 Mostly Clear 59 15 57 13.9 93 93 Calm 30.03 1017 9 14 0.00 0.00
2:53 am 02:53 Mostly Clear 59 15 57 13.9 93 93 Calm 30.01 1016 10 16 0.00 0.00
3:53 am 03:53 Clear 58 14.4 56 13.3 93 93 Calm 30.01 1016 9 14 0.00 0.00
4:53 am 04:53 Clear 58 14.4 56 13.3 93 93 Calm 30.01 1016 10 16 0.00 0.00
5:53 am 05:53 Clear 58 14.4 55 12.8 90 90 Calm 30.02 1017 7 11 0.00 0.00
6:53 am 06:53 Mostly Clear 57 13.9 55 12.8 93 93 Calm 30.04 1017 10 16 0.00 0.00
7:53 am 07:53 Partly Cloudy 58 14.4 56 13.3 93 93 Calm 30.06 1018 7 11 0.00 0.00
8:53 am 08:53 Mostly Cloudy 63 17.2 59 15 87 87 Calm 30.09 1019 10 16 0.00 0.00
9:53 am 09:53 Sunny 67 19.4 61 16.1 81 81 Calm 30.11 1020 10 16 0.00 0.00
10:53 am 10:53 Sunny 71 21.7 55 12.8 57 57 SSE 6 9 30.11 1020 10 16 0.00 0.00
11:53 am 11:53 Sunny 74 23.3 52 11.1 46 46 Calm 30.10 1019 10 16 0.00 0.00
12:53 pm 12:53 Sunny 77 25 50 10 39 39 VRB 3 6 30.10 1019 10 16 0.00 0.00
1:53 pm 13:53 Sunny 79 26.1 53 11.7 41 41 VRB 5 7 30.08 1019 10 16 0.00 0.00
2:53 pm 14:53 Sunny 81 27.2 54 12.2 39 39 VRB 5 7 30.05 1018 10 16 0.00 0.00
3:53 pm 15:53 Sunny 81 27.2 55 12.8 41 41 NNW 5 7 30.04 1017 10 16 0.00 0.00
4:53 pm 16:53 Sunny 81 27.2 54 12.2 39 39 Calm 30.03 1017 10 16 0.00 0.00
5:53 pm 17:53 Sunny 81 27.2 55 12.8 41 41 Calm 30.03 1017 10 16 0.00 0.00
6:53 pm 18:53 Sunny 78 25.6 57 13.9 48 48 Calm 30.04 1017 10 16 0.00 0.00
7:53 pm 19:53 Clear 69 20.6 62 16.7 78 78 Calm 30.05 1018 10 16 0.00 0.00
8:53 pm 20:53 Clear 67 19.4 61 16.1 81 81 Calm 30.06 1018 10 16 0.00 0.00
9:53 pm 21:53 Clear 64 17.8 61 16.1 90 90 Calm 30.08 1019 10 16 0.00 0.00
10:53 pm 22:53 Clear 63 17.2 60 15.6 90 90 Calm 30.09 1019 10 16 0.00 0.00
11:53 pm 23:53 Clear 62 16.7 59 15 90 90 Calm 30.09 1019 10 16 0.00 0.00

Powered by AerisWeather